Regional Weather Roundup
Issued by NWS Midland/Odessa, TX

Home | Current Version | Previous Version | Text Only | Print | Product List | Glossary On
Versions: 1 2 3 4 5 6 7 8 9 10 11 12 13 14 15 16 17 18 19 20 21 22 23 24 25 26 27 28 29 30 31 32 33 34 35 36 37 38 39 40 41 42 43 44 45 46 47 48 49 50
000
ASUS44 KMAF 162310
RWRMAF
MIDLAND AREA WEATHER ROUNDUP
NATIONAL WEATHER SERVICE MIDLAND TX
600 PM CDT WED APR 16 2014

...IN SOUTHWEST TEXAS AND SOUTHEAST NEW MEXICO...

CITY           SKY/WX    TMP DP  RH WIND       PRES   REMARKS
ALPINE         MOSUNNY   81  12   7 SW13G25   29.87S
ANDREWS        FAIR      81  20  10 S9G18     29.74F
ARTESIA        SUNNY     84  10   6 S14G24    29.68F
BIG SPRING     SUNNY     79  25  13 SE20      29.78S
CARLSBAD       SUNNY     86   1   4 SW14G23   29.69F
DRYDEN           N/A     75  34  22 E16       29.80F
FORT STOCKTON  SUNNY     80  21  11 SE24G35   29.73S
GUAD PASS      SUNNY     77   5   6 W25G39    29.84S
HOBBS          SUNNY     81  16   9 S10G21    29.74F
MARFA          MOSUNNY   81  19  10 SW15      29.87S
MIDLAND AIRPK  SUNNY     81  24  12 SE14      29.75F
MIDLAND INTL   SUNNY     80  26  13 S20       29.75F
ODESSA         SUNNY     81  22  11 S17       29.75F
PECOS          SUNNY     89  26  10 E7        29.69S
PRESIDIO       FAIR      84  13   7 SW3       29.75F
SEMINOLE       SUNNY     82  19  10 SE9G20    29.74F
SNYDER         SUNNY     79  20  11 SE16G25   29.77S
WINK           SUNNY     85  20   9 SE15G24   29.69F
$$
...OTHER STATIONS IN TEXAS...

CITY           SKY/WX    TMP DP  RH WIND       PRES   REMARKS
ABILENE        SUNNY     75  28  17 S20       29.81F
AMARILLO       MOSUNNY   75  12   9 NE20G25   29.78R
AUSTIN         PTSUNNY   71  47  42 SE20      29.95R
BROWNSVILLE    PTSUNNY   73  56  54 SE14      29.94S
CORPUS CHRISTI CLOUDY    71  51  49 SE16G24   29.97F
DALLAS FTW     PTSUNNY   68  40  35 S20G33    29.93F
DEL RIO        CLOUDY    74  37  26 SE18G25   29.83F
EL PASO        MOSUNNY   83   2   4 W9        29.75F
HOUSTON INT    PTSUNNY   64  48  56 SE13      30.04S
LUBBOCK        MOSUNNY   82  10   6 S25       29.70F
SAN ANGELO     SUNNY     77  28  16 S16G28    29.80F
SAN ANTONIO    PTSUNNY   74  44  34 S16G23    29.93S
WACO           MOSUNNY   68  44  42 S21G26    29.94F
WICHITA FALLS  NOT AVBL
$$
...OTHER LOCATIONS IN NEW MEXICO...

CITY           SKY/WX    TMP DP  RH WIND       PRES   REMARKS
ALAMAGORDO     MOSUNNY   79   1   5 CALM      29.76F
ALBUQUERQUE    CLOUDY    72   6   7 NW10      29.79S
CANNON AFB     SUNNY     78   6   6 VRB6G21   29.73F
CLOVIS         SUNNY     79  19  11 W15G22    29.76S
HOLLOMAN AFB   MOSUNNY   79   3   5 SE7       29.73F
ROSWELL        SUNNY     84  11   6 SE12      29.69F
RUIDOSO        SUNNY     68   1   7 NW8G17    29.90S
SANTA FE       CLOUDY    66   4   8 SW17G24   29.82S
TRUTH OR CONSE SUNNY     81  -8   3 S14G24    29.71F
TUCUMCARI      CLOUDY    73  20  13 E26G36    29.73R
$$



USA.gov is the U.S. government's official web portal to all federal, state and local government web resources and services.